SCP
0 0 0 0 0 0 0 0 0 0 0 0 0 0 0 0 0 0 0 0 0 0 0 0 0 0 0 0 0 0 0 0 0 0 0 0 0 0 0 0 0 0 0 0
0 0 0 0 0 0 0 0 0 0 0 0 0 0 0 0 -0 -0 0 0 -0 0 -0 -0 0 0 0 0 0 0 0 0 0 0 0 0 0 0 0 0 0 0 0 0
0 0 0 0 0 0 0 0 0 0 0 0 0 0 -0 0 0 0 0 0 -0 -0 0 -0 0 0 0 0 0 0 0 0 0 0 0 0 0 0 0 0 0 0 0 0
0 0 0 0 0 0 0 0 0 0 0 0 0 0 0 0 0 0 0 0 0 0 0 0 0 0 0 0 0 0 0 0 0 0 0 0 0 0 0 0 0 0 0 0
0 0 0 0 0 0 0 0 0 0 0 0 0 0 -0 0 0 0 0 0 0 0 0 0 0 0 0 0 0 0 0 0 0 0 0 0 0 0 0 0 0 0 0 0
0 0 0 0 0 0 0 0 0 0 0 0 0 0 0 0 0 0 0 0 0 0 0 0 0 0 0 0 0 0 0 0 0 0 0 0 0 0 0 0 0 0 0 0
0 0 0 0 0 0 0 0 0 0 0 0 0 0 0 0 0 0 0 0 0 0 0 0 0 0 0 0 0 0 0 0 0 0 0 0 0 0 0 0 0 0 0 0
0 0 0 0 0 0 0 0 0 0 0 0 0 0 0 0 -0 0 0 0 0 0 0 0 0 0 0 0 0 0 0 0 0 0 0 0 0 0 0 0 0 0 0 0
0 0 0 0 0 0 0 0 0 0 0 0 0 0 0 0 0 0 0 0 0 0 0 0 0 0 0 0 0 0 0 0 0 0 0 0 0 0 0 0 0 0 0 0
0 0 0 0 0 0 0 0 0 0 0 0 0 0 0 0 0 0 0 0 0 0 0 0 0 0 0 0 0 0 0 0 0 0 0 0 0 0 0 0 0 0 0 0
0 0 0 0 0 0 0 0 0 0 0 0 0 0 0 0 0 0 0 0 0 0 0 0 0 0 0 0 0 0 0 0 0 0 0 0 0 0 0 0 0 0 0 0
0 0 0 0 0 0 0 0 0 0 0 0 0 0 0 -0 0 0 0 0 0 0 0 0 0 0 0 0 0 0 0 0 0 0 0 0 0 0 0 0 0 0 0 0
0 0 0 0 0 0 0 0 0 0 0 0 0 0 0 0 0 0 0 0 0 0 0 0 0 0 0 0 0 0 0 0 0 0 0 0 0 0 0 0 0 0 0 0
0 0 0 0 0 0 0 0 0 0 0 0 0 0 0 0 0 0 0 0 0 0 0 0 0 0 0 0 0 0 0 0 0 0 0 0 0 0 0 0 0 0 0 0
0 0 0 0 0 0 0 0 0 0 0 0 0 0 0 0 0 0 0 0 0 0 0 0 0 0 0 0 0 0 0 0 0 0 0 0 0 0 0 0 0 0 0 0
0 0 0 0 0 0 0 0 0 0 0 0 0 0 0 0 0 0 0 0 0 0 0 0 0 0 0 0 0 0 0 0 0 0 0 0 0 0 0 0 0 0 0 0
0 0 0 0 0 0 0 0 0 0 0 0 0 0 0 0 0 0 0 0 0 0 0 0 0 0 0 0 0 0 0 0 0 0 0 0 0 0 0 0 0 0 0 0
0 0 0 0 0 0 0 0 0 0 0 0 0 0 0 0 0 0 0 0 0 0 0 0 0 0 0 0 0 0 0 0 0 0 0 0 0 0 0 0 0 0 0 0
0 0 0 0 0 0 0 0 0 0 0 0 0 0 0 0 0 0 0 0 0 0 0 0 0 0 0 0 0 0 0 0 0 0 0 0 0 0 0 0 0 0 0 0
0 0 0 0 0 0 0 0 0 0 0 0 0 0 0 0 0 0 0 0 0 0 0 0 0 0 0 0 0 0 0 0 0 0 0 0 0 0 0 0 0 0 0 0
0 0 0 0 0 0 0 0 0 0 0 0 0 0 0 0 0 0 0 0 0 0 0 0 0 0 0 0 0 0 0 0 0 0 0 0 0 0 0 0 0 0 0 0
0 0 0 0 0 0 0 0 0 0 0 0 0 0 0 0 0 0 0 0 0 0 0 0 0 0 0 0 0 0 0 0 0 0 0 0 0 0 0 0 0 0 0 0
0 0 0 0 0 0 0 0 0 0 0 0 0 0 0 0 0 0 0 0 0 0 0 0 0 0 0 0 0 0 0 0 0 0 0 0 0 0 0 0 0 0 0 0
0 0 0 0 0 0 0 0 0 0 0 0 0 0 0 0 0 0 0 0 0 0 0 0 0 0 0 0 0 0 0 0 0 0 0 0 0 0 0 0 0 0 0 0
0 0 0 0 0 0 0 0 0 0 0 0 0 0 0 0 0 0 0 0 0 0 0 0 0 0 0 0 0 0 0 0 0 0 0 0 0 0 0 0 0 0 0 0
0 0 0 0 0 0 0 0 0 0 0 0 0 0 0 0 0 0 0 0 0 0 0 0 0 0 0 0 0 0 0 0 0 0 0 0 0 0 0 0 0 0 0 0
Wind_Speed_500mb
43 21 39 56 42 13 23 20 16 12 15 16 24 27 26 42 21 31 44 65 69 71 55 54 56 60 65 69 69 68 66 66 69 72 70 67 64 59 57 55 50 48 47 46
14 43 53 32 24 19 30 27 22 6 11 16 14 32 19 27 41 47 54 49 71 72 71 65 61 64 67 66 66 65 67 68 70 73 72 72 67 65 60 57 57 55 53 51
34 58 39 41 30 34 24 37 27 19 10 6 1 18 12 18 54 61 67 68 65 74 69 64 72 73 70 74 71 67 66 67 68 69 70 75 74 72 70 68 64 61 59 55
37 34 43 46 48 34 42 31 29 20 16 9 5 11 10 15 32 30 67 76 82 80 75 69 65 77 78 73 68 70 67 67 65 67 70 74 79 80 75 73 67 64 62 60
39 44 51 44 67 58 31 22 12 13 13 12 11 7 13 8 15 19 46 71 88 84 84 80 71 64 80 72 68 67 69 68 67 70 70 70 75 77 76 75 72 70 66 64
40 39 32 41 35 45 17 18 11 7 6 11 21 23 10 11 16 13 27 57 71 86 79 73 68 65 72 79 78 72 69 68 69 71 71 71 71 73 76 74 74 73 66 65
23 39 21 35 33 27 27 30 6 6 7 12 12 17 27 14 17 15 24 43 41 49 66 75 70 66 66 68 86 80 77 74 68 70 72 72 73 75 75 72 73 74 69 68
33 21 44 32 39 27 53 40 15 25 15 8 11 19 13 33 59 36 14 15 24 28 37 50 58 59 66 67 69 74 81 78 74 69 70 73 76 78 76 74 73 71 71 69
19 13 27 46 21 45 37 38 13 14 4 7 10 12 20 18 19 33 36 27 28 25 29 30 32 35 48 60 58 65 73 76 76 74 72 74 75 80 81 76 74 74 72 71
10 8 39 9 23 28 37 35 15 3 13 11 9 12 16 20 25 19 23 42 38 27 27 30 38 37 37 39 49 58 61 65 68 71 72 72 72 74 75 76 78 78 75 72
17 8 19 24 27 40 11 28 10 12 10 11 5 15 17 25 34 33 23 42 40 39 34 28 29 34 34 33 36 43 52 56 59 62 66 69 69 71 74 77 80 80 76 73
35 10 32 56 5 11 12 34 12 22 13 5 3 12 1 20 22 38 38 43 40 32 29 27 25 27 29 31 34 37 41 46 50 55 59 62 65 67 71 74 77 75 73 67
17 9 24 11 7 7 25 14 36 8 8 12 10 12 10 3 15 48 50 42 40 39 34 30 28 24 21 19 19 22 26 30 34 38 43 49 55 61 66 70 72 71 67 61
18 12 27 39 54 59 56 55 55 31 11 15 16 9 8 7 16 22 50 53 47 36 30 30 26 21 17 18 17 13 12 13 17 21 26 30 33 37 42 46 51 55 52 51
9 12 10 6 15 37 35 43 22 40 39 25 14 13 13 16 18 42 67 57 46 36 30 28 24 17 20 19 18 15 13 11 12 15 17 19 21 22 25 28 32 37 42 50
10 6 4 9 20 38 29 45 44 42 36 10 12 14 11 30 14 24 55 55 49 44 37 34 26 20 19 21 16 13 13 13 13 15 17 20 22 23 24 27 29 31 34 37
10 7 19 16 8 24 12 51 56 52 45 55 34 33 15 12 18 47 65 64 54 46 40 40 30 19 17 16 19 18 19 23 22 22 21 21 21 21 23 25 25 25 26 27
7 8 7 8 23 25 14 41 59 64 62 54 34 25 25 32 69 75 76 74 65 50 42 40 29 20 20 21 25 29 31 30 29 27 23 22 21 21 21 18 17 17 16 14
25 10 4 11 25 4 10 19 58 50 56 58 58 33 38 38 34 41 64 77 72 62 49 42 29 24 27 32 34 39 41 39 34 28 25 25 24 22 18 15 11 8 6 4
28 26 7 7 15 28 7 16 44 15 33 31 62 49 36 41 21 35 75 77 63 63 51 42 37 34 35 36 35 37 38 39 35 30 29 28 23 20 16 14 11 9 8 9
8 8 15 14 6 13 10 23 66 28 41 64 72 81 67 33 62 71 60 79 67 54 48 44 40 39 38 38 36 36 37 37 36 33 30 28 23 18 14 13 11 13 14 16
15 13 8 5 3 25 28 51 49 41 29 22 80 82 83 106 81 69 66 66 58 53 47 44 41 42 41 39 36 33 33 33 32 29 25 22 19 17 14 13 14 14 14 15
9 18 14 21 15 8 75 31 69 21 36 47 48 90 115 100 86 74 61 50 51 48 48 49 45 42 38 35 32 30 27 26 24 24 24 23 20 17 15 14 14 13 14 15
16 16 8 7 15 11 43 39 59 42 23 32 37 63 86 79 84 70 61 59 61 59 52 47 44 41 35 30 27 25 23 24 26 26 27 26 24 21 19 16 14 16 16 14
10 17 13 12 5 7 14 68 54 59 39 35 33 37 67 75 71 74 75 69 60 53 51 48 43 37 34 32 29 28 26 25 27 28 26 23 21 17 16 14 12 12 12 13
16 14 20 17 17 17 18 59 76 79 42 33 34 34 45 54 75 83 84 75 65 59 57 51 44 37 35 33 31 31 32 30 24 25 24 23 21 18 16 14 11 10 9 10
Wind_Direction_500mb
180 196 198 201 194 186 166 179 183 207 200 177 224 242 232 252 239 238 235 229 225 227 230 230 229 226 226 227 229 226 226 231 231 232 231 230 233 233 233 236 238 239 240 242
175 210 207 195 199 180 183 175 212 244 213 181 229 246 237 244 256 255 249 242 229 232 232 230 230 227 225 226 227 229 232 233 234 235 237 239 240 239 242 242 242 242 243 244
207 208 193 192 193 197 200 188 188 200 161 183 121 273 225 236 246 249 249 247 236 230 230 229 229 229 228 226 227 230 233 235 235 237 239 239 242 244 243 242 242 243 245 245
227 213 191 187 197 191 214 204 197 186 160 200 179 276 256 227 239 233 236 238 237 232 232 236 234 230 228 231 234 235 237 239 239 238 242 243 243 245 247 249 249 248 247 250
197 180 184 191 193 187 213 145 159 180 180 133 177 264 268 213 257 236 235 236 239 236 233 234 234 236 232 233 235 238 240 242 244 243 244 245 245 249 253 253 255 255 254 254
202 205 176 203 192 188 148 111 71 95 66 249 174 200 252 210 210 242 239 243 240 238 236 235 238 240 234 233 235 237 239 243 245 245 245 247 247 249 251 253 253 255 256 255
181 182 169 160 171 184 173 163 186 146 187 230 170 191 234 237 244 228 250 241 238 237 236 233 232 233 232 233 236 238 239 242 246 247 248 249 251 251 254 255 254 256 257 256
179 187 177 175 190 179 187 185 171 194 192 200 123 223 244 218 244 234 232 212 196 208 220 229 237 240 238 238 234 238 241 243 246 249 252 253 253 254 256 256 255 257 259 261
180 212 190 178 173 167 194 208 175 98 41 87 212 279 306 233 247 225 223 196 201 198 206 207 219 231 234 232 235 241 243 244 247 251 251 253 254 255 256 258 260 262 264 266
254 142 192 173 149 189 185 177 177 19 144 215 247 281 228 204 201 205 205 205 208 209 213 219 222 225 226 229 234 238 241 244 248 251 251 254 256 259 262 265 265 267 269 270
257 205 169 155 198 176 151 187 201 126 165 167 177 249 208 204 196 196 193 198 199 202 205 212 213 216 223 230 234 234 237 240 243 246 247 249 252 256 259 262 266 269 272 274
217 257 172 188 31 170 182 182 186 198 212 214 209 272 229 249 168 164 185 185 181 191 203 200 198 204 216 225 230 233 236 240 245 247 248 250 251 251 253 255 260 263 266 269
183 229 159 150 359 23 184 183 192 110 94 193 145 262 349 235 166 171 170 176 168 163 164 163 158 162 176 187 201 214 225 233 238 241 243 244 246 247 249 251 253 254 257 256
204 211 198 188 188 182 187 189 193 188 178 186 219 296 321 271 165 158 170 166 162 160 169 177 183 187 187 181 177 178 188 204 219 233 240 244 248 251 254 257 257 258 253 250
165 223 214 325 138 189 191 188 182 201 212 198 192 199 255 225 197 182 173 169 174 177 174 167 165 180 192 190 182 179 187 202 218 229 238 242 243 243 244 247 249 251 250 250
153 242 124 346 158 181 190 196 200 210 208 242 184 226 226 216 217 177 179 181 184 186 185 186 193 195 193 193 181 197 213 226 234 240 239 241 244 248 250 252 254 257 259 258
177 197 173 207 185 134 179 197 196 205 207 213 207 213 154 175 199 202 195 196 193 196 193 192 198 204 210 211 212 230 238 237 238 241 240 242 247 253 259 258 254 252 252 256
296 276 199 165 136 194 216 192 205 202 209 213 225 178 180 195 205 210 208 204 208 203 203 207 205 202 212 226 237 236 237 238 238 243 240 239 239 243 248 252 254 252 246 245
180 238 179 167 188 292 266 201 191 192 219 210 219 205 210 212 204 234 227 225 223 211 217 208 208 218 235 239 243 239 238 237 236 238 237 234 237 237 234 232 237 256 260 247
211 202 187 147 167 204 234 154 200 184 262 207 214 206 194 179 203 232 224 218 215 218 215 214 219 237 240 238 234 234 234 234 234 232 230 232 233 241 243 240 224 207 221 240
176 164 185 186 198 280 252 150 142 149 236 222 206 209 194 192 213 224 217 204 207 213 215 217 230 231 229 226 228 229 227 227 225 227 225 224 225 229 236 235 214 207 215 228
182 162 174 82 78 255 173 154 169 200 131 185 201 202 200 208 214 211 199 194 202 214 216 218 219 214 214 219 220 220 221 223 222 217 213 214 216 217 222 223 208 210 218 234
251 202 188 194 201 252 179 177 200 215 203 224 214 205 203 201 203 199 190 197 196 194 197 200 206 214 213 210 209 212 212 210 210 204 196 199 204 204 208 209 208 208 222 238
204 233 226 125 220 206 204 201 213 232 217 209 218 211 202 201 202 195 194 184 181 186 194 203 198 194 192 188 189 188 188 185 180 183 184 185 191 190 198 204 202 200 206 217
192 157 207 269 277 358 256 211 229 219 235 247 230 221 210 206 194 190 181 184 190 192 193 191 191 189 183 177 177 172 170 173 177 174 173 176 183 181 187 196 198 207 208 215
185 193 203 246 170 172 217 211 220 216 224 213 202 186 194 199 193 188 187 189 191 190 186 184 181 176 171 163 163 161 157 154 161 157 158 165 167 167 172 173 181 194 203 213
Wind_Speed_850mb
43 21 39 56 42 13 23 20 16 12 15 16 24 27 26 42 21 31 44 65 69 71 55 54 56 60 65 69 69 68 66 66 69 72 70 67 64 59 57 55 50 48 47 46
14 43 53 32 24 19 30 27 22 6 11 16 14 32 19 27 41 47 54 49 71 72 71 65 61 64 67 66 66 65 67 68 70 73 72 72 67 65 60 57 57 55 53 51
34 58 39 41 30 34 24 37 27 19 10 6 1 18 12 18 54 61 67 68 65 74 69 64 72 73 70 74 71 67 66 67 68 69 70 75 74 72 70 68 64 61 59 55
37 34 43 46 48 34 42 31 29 20 16 9 5 11 10 15 32 30 67 76 82 80 75 69 65 77 78 73 68 70 67 67 65 67 70 74 79 80 75 73 67 64 62 60
39 44 51 44 67 58 31 22 12 13 13 12 11 7 13 8 15 19 46 71 88 84 84 80 71 64 80 72 68 67 69 68 67 70 70 70 75 77 76 75 72 70 66 64
40 39 32 41 35 45 17 18 11 7 6 11 21 23 10 11 16 13 27 57 71 86 79 73 68 65 72 79 78 72 69 68 69 71 71 71 71 73 76 74 74 73 66 65
23 39 21 35 33 27 27 30 6 6 7 12 12 17 27 14 17 15 24 43 41 49 66 75 70 66 66 68 86 80 77 74 68 70 72 72 73 75 75 72 73 74 69 68
33 21 44 32 39 27 53 40 15 25 15 8 11 19 13 33 59 36 14 15 24 28 37 50 58 59 66 67 69 74 81 78 74 69 70 73 76 78 76 74 73 71 71 69
19 13 27 46 21 45 37 38 13 14 4 7 10 12 20 18 19 33 36 27 28 25 29 30 32 35 48 60 58 65 73 76 76 74 72 74 75 80 81 76 74 74 72 71
10 8 39 9 23 28 37 35 15 3 13 11 9 12 16 20 25 19 23 42 38 27 27 30 38 37 37 39 49 58 61 65 68 71 72 72 72 74 75 76 78 78 75 72
17 8 19 24 27 40 11 28 10 12 10 11 5 15 17 25 34 33 23 42 40 39 34 28 29 34 34 33 36 43 52 56 59 62 66 69 69 71 74 77 80 80 76 73
35 10 32 56 5 11 12 34 12 22 13 5 3 12 1 20 22 38 38 43 40 32 29 27 25 27 29 31 34 37 41 46 50 55 59 62 65 67 71 74 77 75 73 67
17 9 24 11 7 7 25 14 36 8 8 12 10 12 10 3 15 48 50 42 40 39 34 30 28 24 21 19 19 22 26 30 34 38 43 49 55 61 66 70 72 71 67 61
18 12 27 39 54 59 56 55 55 31 11 15 16 9 8 7 16 22 50 53 47 36 30 30 26 21 17 18 17 13 12 13 17 21 26 30 33 37 42 46 51 55 52 51
9 12 10 6 15 37 35 43 22 40 39 25 14 13 13 16 18 42 67 57 46 36 30 28 24 17 20 19 18 15 13 11 12 15 17 19 21 22 25 28 32 37 42 50
10 6 4 9 20 38 29 45 44 42 36 10 12 14 11 30 14 24 55 55 49 44 37 34 26 20 19 21 16 13 13 13 13 15 17 20 22 23 24 27 29 31 34 37
10 7 19 16 8 24 12 51 56 52 45 55 34 33 15 12 18 47 65 64 54 46 40 40 30 19 17 16 19 18 19 23 22 22 21 21 21 21 23 25 25 25 26 27
7 8 7 8 23 25 14 41 59 64 62 54 34 25 25 32 69 75 76 74 65 50 42 40 29 20 20 21 25 29 31 30 29 27 23 22 21 21 21 18 17 17 16 14
25 10 4 11 25 4 10 19 58 50 56 58 58 33 38 38 34 41 64 77 72 62 49 42 29 24 27 32 34 39 41 39 34 28 25 25 24 22 18 15 11 8 6 4
28 26 7 7 15 28 7 16 44 15 33 31 62 49 36 41 21 35 75 77 63 63 51 42 37 34 35 36 35 37 38 39 35 30 29 28 23 20 16 14 11 9 8 9
8 8 15 14 6 13 10 23 66 28 41 64 72 81 67 33 62 71 60 79 67 54 48 44 40 39 38 38 36 36 37 37 36 33 30 28 23 18 14 13 11 13 14 16
15 13 8 5 3 25 28 51 49 41 29 22 80 82 83 106 81 69 66 66 58 53 47 44 41 42 41 39 36 33 33 33 32 29 25 22 19 17 14 13 14 14 14 15
9 18 14 21 15 8 75 31 69 21 36 47 48 90 115 100 86 74 61 50 51 48 48 49 45 42 38 35 32 30 27 26 24 24 24 23 20 17 15 14 14 13 14 15
16 16 8 7 15 11 43 39 59 42 23 32 37 63 86 79 84 70 61 59 61 59 52 47 44 41 35 30 27 25 23 24 26 26 27 26 24 21 19 16 14 16 16 14
10 17 13 12 5 7 14 68 54 59 39 35 33 37 67 75 71 74 75 69 60 53 51 48 43 37 34 32 29 28 26 25 27 28 26 23 21 17 16 14 12 12 12 13
16 14 20 17 17 17 18 59 76 79 42 33 34 34 45 54 75 83 84 75 65 59 57 51 44 37 35 33 31 31 32 30 24 25 24 23 21 18 16 14 11 10 9 10
Wind_Direction_850mb
180 196 198 201 194 186 166 179 183 207 200 177 224 242 232 252 239 238 235 229 225 227 230 230 229 226 226 227 229 226 226 231 231 232 231 230 233 233 233 236 238 239 240 242
175 210 207 195 199 180 183 175 212 244 213 181 229 246 237 244 256 255 249 242 229 232 232 230 230 227 225 226 227 229 232 233 234 235 237 239 240 239 242 242 242 242 243 244
207 208 193 192 193 197 200 188 188 200 161 183 121 273 225 236 246 249 249 247 236 230 230 229 229 229 228 226 227 230 233 235 235 237 239 239 242 244 243 242 242 243 245 245
227 213 191 187 197 191 214 204 197 186 160 200 179 276 256 227 239 233 236 238 237 232 232 236 234 230 228 231 234 235 237 239 239 238 242 243 243 245 247 249 249 248 247 250
197 180 184 191 193 187 213 145 159 180 180 133 177 264 268 213 257 236 235 236 239 236 233 234 234 236 232 233 235 238 240 242 244 243 244 245 245 249 253 253 255 255 254 254
202 205 176 203 192 188 148 111 71 95 66 249 174 200 252 210 210 242 239 243 240 238 236 235 238 240 234 233 235 237 239 243 245 245 245 247 247 249 251 253 253 255 256 255
181 182 169 160 171 184 173 163 186 146 187 230 170 191 234 237 244 228 250 241 238 237 236 233 232 233 232 233 236 238 239 242 246 247 248 249 251 251 254 255 254 256 257 256
179 187 177 175 190 179 187 185 171 194 192 200 123 223 244 218 244 234 232 212 196 208 220 229 237 240 238 238 234 238 241 243 246 249 252 253 253 254 256 256 255 257 259 261
180 212 190 178 173 167 194 208 175 98 41 87 212 279 306 233 247 225 223 196 201 198 206 207 219 231 234 232 235 241 243 244 247 251 251 253 254 255 256 258 260 262 264 266
254 142 192 173 149 189 185 177 177 19 144 215 247 281 228 204 201 205 205 205 208 209 213 219 222 225 226 229 234 238 241 244 248 251 251 254 256 259 262 265 265 267 269 270
257 205 169 155 198 176 151 187 201 126 165 167 177 249 208 204 196 196 193 198 199 202 205 212 213 216 223 230 234 234 237 240 243 246 247 249 252 256 259 262 266 269 272 274
217 257 172 188 31 170 182 182 186 198 212 214 209 272 229 249 168 164 185 185 181 191 203 200 198 204 216 225 230 233 236 240 245 247 248 250 251 251 253 255 260 263 266 269
183 229 159 150 359 23 184 183 192 110 94 193 145 262 349 235 166 171 170 176 168 163 164 163 158 162 176 187 201 214 225 233 238 241 243 244 246 247 249 251 253 254 257 256
204 211 198 188 188 182 187 189 193 188 178 186 219 296 321 271 165 158 170 166 162 160 169 177 183 187 187 181 177 178 188 204 219 233 240 244 248 251 254 257 257 258 253 250
165 223 214 325 138 189 191 188 182 201 212 198 192 199 255 225 197 182 173 169 174 177 174 167 165 180 192 190 182 179 187 202 218 229 238 242 243 243 244 247 249 251 250 250
153 242 124 346 158 181 190 196 200 210 208 242 184 226 226 216 217 177 179 181 184 186 185 186 193 195 193 193 181 197 213 226 234 240 239 241 244 248 250 252 254 257 259 258
177 197 173 207 185 134 179 197 196 205 207 213 207 213 154 175 199 202 195 196 193 196 193 192 198 204 210 211 212 230 238 237 238 241 240 242 247 253 259 258 254 252 252 256
296 276 199 165 136 194 216 192 205 202 209 213 225 178 180 195 205 210 208 204 208 203 203 207 205 202 212 226 237 236 237 238 238 243 240 239 239 243 248 252 254 252 246 245
180 238 179 167 188 292 266 201 191 192 219 210 219 205 210 212 204 234 227 225 223 211 217 208 208 218 235 239 243 239 238 237 236 238 237 234 237 237 234 232 237 256 260 247
211 202 187 147 167 204 234 154 200 184 262 207 214 206 194 179 203 232 224 218 215 218 215 214 219 237 240 238 234 234 234 234 234 232 230 232 233 241 243 240 224 207 221 240
176 164 185 186 198 280 252 150 142 149 236 222 206 209 194 192 213 224 217 204 207 213 215 217 230 231 229 226 228 229 227 227 225 227 225 224 225 229 236 235 214 207 215 228
182 162 174 82 78 255 173 154 169 200 131 185 201 202 200 208 214 211 199 194 202 214 216 218 219 214 214 219 220 220 221 223 222 217 213 214 216 217 222 223 208 210 218 234
251 202 188 194 201 252 179 177 200 215 203 224 214 205 203 201 203 199 190 197 196 194 197 200 206 214 213 210 209 212 212 210 210 204 196 199 204 204 208 209 208 208 222 238
204 233 226 125 220 206 204 201 213 232 217 209 218 211 202 201 202 195 194 184 181 186 194 203 198 194 192 188 189 188 188 185 180 183 184 185 191 190 198 204 202 200 206 217
192 157 207 269 277 358 256 211 229 219 235 247 230 221 210 206 194 190 181 184 190 192 193 191 191 189 183 177 177 172 170 173 177 174 173 176 183 181 187 196 198 207 208 215
185 193 203 246 170 172 217 211 220 216 224 213 202 186 194 199 193 188 187 189 191 190 186 184 181 176 171 163 163 161 157 154 161 157 158 165 167 167 172 173 181 194 203 213